Tracking 27380 objects as of 6-Jun-2023
HD Live streaming from Space Station
objects crossing your sky now

BREEZE-M DEB

Track BREEZE-M DEB now!


NORAD ID: 38586
Int'l Code: 2008-011AH
Perigee: 1,402.7 km
Apogee: 27,216.6 km
Inclination: 49.4 °
Period: 493.3 minutes
Semi major axis: 20680 km
RCS: 0.0885 m2 (small)
Launch date: March 14, 2008
Source: Commonwealth of Independent States (former USSR) (CIS)
Launch site: TYURATAM MISSILE AND SPACE COMPLEX (TTMTR)

Note: This is SATELLITE DEBRIS
Your satellite tracking list
Your tracking list is empty




NASA's NSSDC Master Catalog

Two Line Element Set (TLE):
1 38586U 08011AH  23154.40475198 -.00000080  00000-0  00000-0 0  9992
2 38586  49.3909 285.8977 6241088 356.1792   0.5688  2.91915192129473
Source of the keplerian elements: AFSPC